Gamaliel, AR

5:18 PM CDT on August 29, 2016 (GMT -0500)
Baxter County Regional

Weather History for KBPK - May, 2012

Change the Weather History Date:

Tuesday, May 8, 2012

  Actual Average (KHRO) Record (KHRO)
Temperature  
Mean Temperature 64 °F 64 °F  
Max Temperature 72 °F 74 °F 94 °F (1918)
Min Temperature 55 °F 54 °F 32 °F (1917)
Degree Days  
Heating Degree Days 2 3  
Month to date heating degree days 31  
Since 1 July heating degree days 3952  
Cooling Degree Days 0 2  
Month to date cooling degree days 16  
Year to date cooling degree days 53  
Growing Degree Days 14 (Base 50)    
Moisture  
Dew Point 53 °F    
Average Humidity 72    
Maximum Humidity 93    
Minimum Humidity 44    
Precipitation  
Precipitation 0.00 in 0.16 in 2.17 in (1929)
Month to date precipitation 1.35  
Year to date precipitation 14.66  
Snow  
Snow 0.00 in 0.00 in - ()
Month to date snowfall 0.0  
Since 1 July snowfall 11.5  
Snow Depth -    
Sea Level Pressure  
Sea Level Pressure 29.98 in    
Wind  
Wind Speed 1 mph (North)    
Max Wind Speed 6 mph    
Max Gust Speed -    
Visibility 10 miles    
Events Rain    
T = Trace of Precipitation, MM = Missing Value Source: NWS Daily Summary

Daily Weather History Graph

Daily Weather History Graph

Search for Another Location

Airport or City:

Trip Planner

Search our weather history database for the weather conditions in past years. The results will help you decide how hot, cold, wet, or windy it might be!

Date:

Astronomy

May. 08, 2012 Rise Set
Actual Time 6:08 AM CDT 8:04 PM CDT
Civil Twilight 5:40 AM CDT 8:32 PM CDT
Nautical Twilight 5:06 AM CDT 9:06 PM CDT
Astronomical Twilight 4:30 AM CDT 9:43 PM CDT
Moon 11:12 PM CDT (5/8) 8:20 AM CDT (5/8)
Length of Visible Light 14h 51m
Length of Day
13h 55m
Waning Gibbous, 90% of the Moon is Illuminated
May 8
Waning Gibbous
May 12
Last Quarter
May 20
New
May 28
First Quarter
Jun 4
Full

Hourly Weather History & Observations

Time (CDT) Temp. Dew Point Humidity Pressure Visibility Wind Dir Wind Speed Gust Speed Precip Events Conditions
12:53 AM 61.0 °F 59.0 °F 93% 29.96 in 10.0 mi Calm Calm - 0.00 in   Scattered Clouds
1:53 AM 62.1 °F 60.1 °F 93% 29.95 in 10.0 mi Calm Calm - 0.00 in Rain Light Rain
2:53 AM 61.0 °F 59.0 °F 93% 29.94 in 10.0 mi Calm Calm - 0.00 in   Scattered Clouds
3:53 AM 61.0 °F 59.0 °F 93% 29.95 in 10.0 mi Calm Calm - N/A   Clear
4:53 AM 60.1 °F 57.9 °F 93% 29.96 in 10.0 mi Calm Calm - N/A   Clear
5:53 AM 60.1 °F 57.0 °F 90% 29.97 in 10.0 mi Calm Calm - N/A   Scattered Clouds
6:53 AM 60.1 °F 55.9 °F 86% 29.99 in 10.0 mi Calm Calm - N/A   Mostly Cloudy
7:53 AM 62.1 °F 54.0 °F 75% 29.99 in 10.0 mi Calm Calm - N/A   Scattered Clouds
8:53 AM 64.0 °F 53.1 °F 67% 30.01 in 10.0 mi NE 4.6 mph - N/A   Clear
9:53 AM 66.0 °F 51.1 °F 59% 30.02 in 10.0 mi Variable 3.5 mph - N/A   Mostly Cloudy
10:53 AM 66.9 °F 51.1 °F 57% 30.01 in 10.0 mi Variable 4.6 mph - N/A   Partly Cloudy
11:53 AM 69.1 °F 50.0 °F 51% 30.03 in 10.0 mi NNW 4.6 mph - N/A   Mostly Cloudy
12:53 PM 70.0 °F 51.1 °F 51% 30.03 in 10.0 mi Calm Calm - N/A   Overcast
1:53 PM 70.0 °F 50.0 °F 49% 30.01 in 10.0 mi Variable 5.8 mph - N/A   Partly Cloudy
2:53 PM 71.1 °F 50.0 °F 47% 29.98 in 9.0 mi Variable 5.8 mph - N/A   Mostly Cloudy
3:53 PM 72.0 °F 48.9 °F 44% 29.96 in 10.0 mi Calm Calm - N/A   Mostly Cloudy
4:53 PM 68.0 °F 46.9 °F 47% 29.96 in 10.0 mi North 3.5 mph - N/A   Mostly Cloudy
5:53 PM 66.9 °F 50.0 °F 54% 29.96 in 10.0 mi Calm Calm - N/A   Clear
6:53 PM 63.0 °F 55.0 °F 75% 29.96 in 10.0 mi Calm Calm - N/A   Clear
7:53 PM 60.1 °F 53.1 °F 78% 29.98 in 10.0 mi Calm Calm - N/A   Clear
8:53 PM 59.0 °F 52.0 °F 78% 29.99 in 10.0 mi Calm Calm - N/A   Clear
9:53 PM 57.9 °F 48.9 °F 72% 30.00 in 10.0 mi Calm Calm - N/A   Clear
10:53 PM 55.9 °F 51.1 °F 84% 30.00 in 10.0 mi Calm Calm - N/A   Clear
11:53 PM 55.9 °F 53.1 °F 90% 30.01 in 10.0 mi Calm Calm - N/A   Clear